[[{"header":{"parameterUnit":"m.s-1","parameterCategory":1,"la1":30.2991,"la2":30.254,"lo1":-89.0895,"lo2":-89.0444,"dy":0.0017,"dx":0.0017,"nx":28,"ny":28,"refTime":"2025-06-06T09:00:00:Z","depth":0,"parameterNumber":2,"parameterNumberName":"U-component_of_WINDS"},"data":[0,0,0,0,0,0,0,0,0,0,0,0,0,0,0,0,0,0,0,0,0,0,0,0,0,0,0,0,0,0,0,0,0,0,0,0,0,0,0,0,0,0,0,0,0,0,0,0,0,0,0,0,0,0,0,0,0,0,3.0793,3.0794,0,3.0885,3.0886,3.0887,3.0834,3.0832,3.0829,3.0827,3.0921,3.0926,3.093,0,0,0,0,0,0,0,0,0,0,0,0,0,3.0569,3.0573,3.0792,3.0794,3.0795,3.0884,3.0886,3.0887,3.0835,3.0832,3.0828,3.0826,3.0919,3.0925,3.0931,0,0,0,0,0,0,0,0,0,0,0,0,0,3.0664,3.0574,3.0792,3.0779,3.0779,3.0884,3.0886,3.0887,3.0835,3.0832,3.0828,3.0824,3.0917,3.0924,3.0932,3.1054,0,0,3.0954,3.0957,0,0,0,0,0,0,0,0,3.0659,3.0672,3.078,3.0781,3.078,3.0844,3.0841,3.0943,3.0836,3.0814,3.0827,3.0822,3.0898,3.0907,3.0933,3.1059,3.1063,3.0955,3.0959,3.0963,3.0965,0,0,0,0,0,0,0,3.0652,3.0668,3.0829,3.0782,3.0782,3.0768,3.0778,3.086,3.0877,3.0816,3.0812,3.0824,3.0898,3.0926,3.0935,3.1064,3.0955,3.0961,3.0966,3.0969,3.1291,3.1295,0,0,0,0,0,0,3.0646,3.0663,3.0826,3.0832,3.0709,3.0775,3.0786,3.0828,3.0876,3.0879,3.0827,3.0821,3.0915,3.0926,3.0938,3.1081,3.0962,3.0969,3.0974,3.1287,3.1292,3.1296,0,0,0,0,0,0,3.0642,3.0662,3.0822,3.0746,3.0766,3.0783,3.0831,3.0831,3.0859,3.0884,3.0887,3.0853,3.0913,3.0927,3.1025,3.1083,3.0973,3.0979,3.1282,3.1288,3.1294,3.137,0,0,0,0,0,0,3.0636,3.066,3.0708,3.0748,3.077,3.0909,3.0834,3.0836,3.0872,3.0865,3.0909,3.0913,3.0911,3.1014,3.1032,3.1092,3.0985,3.1277,3.1285,3.1292,3.1363,3.1378,3.1392,0,0,0,0,0,3.0628,3.0727,3.071,3.073,3.083,3.0912,3.0925,3.0921,3.0877,3.0924,3.094,3.0911,3.1075,3.1024,3.1044,3.1107,3.1273,3.1282,3.1291,3.1356,3.1375,3.1392,0,0,0,0,0,0,3.0694,3.0732,3.0714,3.0829,3.0868,3.0903,3.0962,3.0942,3.0994,3.0985,3.0977,3.0988,3.1088,3.1108,3.1051,3.1226,3.1167,3.1181,3.1209,3.1228,3.1242,3.1234,3.0991,0,0,0,0,0,3.0722,3.0786,3.0815,3.0914,3.0934,3.0945,3.0981,3.0974,3.1014,3.103,3.1053,3.1092,3.1151,3.1191,3.1248,3.1366,3.1373,3.1419,3.1433,3.1445,3.1456,3.1516,3.1535,3.1327,3.1327,3.1327,0,0,3.078,3.0808,3.085,3.0927,3.0957,3.1022,3.0959,3.1032,3.1079,3.1041,3.1133,3.1151,3.1194,3.1301,3.135,3.1321,3.1516,3.1457,3.1466,3.1471,3.1527,3.1547,3.1565,3.1333,3.1332,3.1331,0,0,3.0918,3.0948,3.1031,3.1061,3.1105,3.1112,3.1132,3.117,3.118,3.1273,3.1244,3.1301,3.1405,3.1435,3.1465,3.1612,3.1586,3.1631,3.1707,3.1765,3.1781,3.1796,3.1844,3.1862,3.1643,3.1643,3.1643,0,3.0984,3.1082,3.1076,3.115,3.1183,3.1151,3.1234,3.1263,3.1324,3.1348,3.1315,3.1442,3.147,3.1581,3.1617,3.1643,3.1663,3.1625,3.1779,3.1794,3.1807,3.1853,3.1872,3.1648,3.1647,3.1647,3.1646,0,3.1159,3.1227,3.1289,3.1347,3.1388,3.1466,3.147,3.1513,3.1502,3.1511,3.1604,3.1636,3.1696,3.1723,3.1714,3.1833,3.1812,3.178,3.172,3.1832,3.1875,3.1893,3.1655,3.1653,3.1651,3.165,0,0,3.1341,3.1393,3.1416,3.144,3.1486,3.1538,3.1614,3.1672,3.1706,3.175,3.1811,3.1899,3.1868,3.1901,3.1895,3.1947,3.2056,3.1907,3.1908,3.193,3.2184,3.2206,3.2227,3.2041,3.2044,3.2047,3.2179,0,3.1479,3.161,3.1606,3.1728,3.1789,3.1758,3.1823,3.1858,3.1868,3.1921,3.1932,3.1993,3.195,3.1969,3.2019,3.2033,3.2107,3.2023,3.2095,3.2097,3.2081,3.225,3.2274,3.2397,3.2197,3.2199,3.2202,0,3.1658,3.1705,3.1832,3.1866,3.1891,3.195,3.2001,3.2053,3.209,3.2094,3.213,3.2115,3.219,3.2129,3.223,3.2173,3.2203,3.2214,3.2218,3.2222,3.2154,3.2255,3.2437,3.2454,3.2229,3.2227,3.2225,0,3.1772,3.1868,3.1956,3.1978,3.2021,3.2062,3.2081,3.2115,3.215,3.2195,3.2216,3.2271,3.2299,3.2341,3.234,3.2297,3.2441,3.2381,3.2443,3.2443,3.2473,3.247,3.2658,3.2498,3.2498,3.2497,3.2497,0,3.1925,3.2003,3.2007,3.2061,3.2146,3.2141,3.2226,3.2241,3.2271,3.2325,3.2304,3.2355,3.2353,3.2405,3.2405,3.2486,3.2501,3.2504,3.2502,3.2504,3.2503,3.2521,3.2511,3.2502,3.2501,3.25,3.2499,0,3.2067,3.2073,3.2165,3.2197,3.2207,3.2269,3.2295,3.2345,3.2353,3.2423,3.2439,3.2451,3.2511,3.2515,3.2585,3.2585,3.2682,3.2673,3.2669,3.2666,3.2726,3.2719,3.2929,3.2955,3.2781,3.2783,3.2784,0,3.2162,3.2221,3.2258,3.2293,3.2315,3.2372,3.2406,3.2402,3.2439,3.2484,3.2528,3.2586,3.2631,3.2728,3.2742,3.2795,3.2784,3.2854,3.2792,3.279,3.2781,3.2776,3.278,3.2866,3.2867,3.2869,3.287,0,3.2329,3.2328,3.2379,3.2429,3.2471,3.2511,3.2548,3.2578,3.2578,3.262,3.268,3.2716,3.2785,3.2842,3.2892,3.2911,3.289,3.289,3.2906,3.2907,3.29,3.29,3.2698,3.2885,3.2883,3.2882,3.2881,3.2881,3.2447,3.2497,3.253,3.2586,3.2613,3.2648,3.2695,3.2708,3.2759,3.2814,3.281,3.2875,3.2909,3.2974,3.2997,3.3047,3.3023,3.3048,3.3054,3.3059,3.3063,3.2895,3.3057,3.3057,3.3056,3.3056,3.3056,0,3.2609,3.2629,3.268,3.2732,3.2775,3.2753,3.2792,3.2829,3.2887,3.292,3.2965,3.3032,3.3086,3.3105,3.3157,3.3193,3.3184,3.3206,3.3202,3.3206,3.3084,3.3063,3.3212,3.3212,3.3212,3.3212,3.3212,3.3212,3.2699,3.278,3.2783,3.2876,3.2895,3.2959,3.2983,3.3014,3.3039,3.3115,3.316,3.3171,3.3198,3.3251,3.3298,3.3302,3.3321,3.3346,3.3346,3.3231,3.3215,3.32,3.3179,3.3351,3.3351,3.3463,3.3464,3.3464]},{"header":{"parameterUnit":"m.s-1","parameterCategory":1,"la1":30.2991,"la2":30.254,"lo1":-89.0895,"lo2":-89.0444,"dy":0.0017,"dx":0.0017,"nx":28,"ny":28,"refTime":"2025-06-06T09:00:00:Z","depth":0,"parameterNumber":3,"parameterNumberName":"V-component_of_WINDS"},"data":[0,0,0,0,0,0,0,0,0,0,0,0,0,0,0,0,0,0,0,0,0,0,0,0,0,0,0,0,0,0,0,0,0,0,0,0,0,0,0,0,0,0,0,0,0,0,0,0,0,0,0,0,0,0,0,0,0,0,2.5989,2.599,0,2.6022,2.6023,2.6023,2.5981,2.5979,2.5978,2.5976,2.6009,2.6012,2.6014,0,0,0,0,0,0,0,0,0,0,0,0,0,2.5887,2.5889,2.5989,2.599,2.599,2.6022,2.6023,2.6023,2.5981,2.5979,2.5977,2.5975,2.6009,2.6011,2.6014,0,0,0,0,0,0,0,0,0,0,0,0,0,2.5927,2.589,2.5989,2.5973,2.5972,2.6022,2.6023,2.6023,2.5981,2.5979,2.5977,2.5975,2.6008,2.6011,2.6014,2.6082,0,0,2.6025,2.6027,0,0,0,0,0,0,0,0,2.5925,2.5931,2.5975,2.5974,2.5973,2.5995,2.5999,2.6043,2.5982,2.5978,2.5976,2.5973,2.6006,2.601,2.6021,2.6084,2.6085,2.6025,2.6028,2.6029,2.603,0,0,0,0,0,0,0,2.5922,2.5929,2.6002,2.5976,2.5974,2.5963,2.5966,2.6007,2.6005,2.5978,2.5975,2.5979,2.6005,2.6018,2.6022,2.6086,2.6025,2.6028,2.6031,2.6032,2.6203,2.6206,0,0,0,0,0,0,2.5921,2.5927,2.6001,2.6003,2.5943,2.5967,2.597,2.599,2.6004,2.6004,2.5981,2.5977,2.6013,2.6018,2.6023,2.6101,2.6029,2.6032,2.6034,2.6201,2.6204,2.6207,0,0,0,0,0,0,2.5919,2.5928,2.6,2.5964,2.5973,2.5971,2.5994,2.5992,2.6005,2.6007,2.6006,2.5995,2.6011,2.6018,2.6067,2.6102,2.6034,2.6037,2.6198,2.6202,2.6205,2.626,0,0,0,0,0,0,2.5917,2.5928,2.5954,2.5965,2.5975,2.6045,2.5996,2.5994,2.6011,2.6006,2.6019,2.6019,2.601,2.6062,2.6071,2.6105,2.604,2.6195,2.62,2.6204,2.6255,2.6265,2.6274,0,0,0,0,0,2.5913,2.5969,2.5956,2.5965,2.6008,2.6047,2.6052,2.6041,2.6014,2.604,2.6041,2.6019,2.6097,2.6068,2.6077,2.6113,2.6193,2.6198,2.6204,2.6251,2.6263,2.6274,0,0,0,0,0,0,2.5962,2.597,2.5956,2.6017,2.6032,2.604,2.6072,2.6055,2.6078,2.6072,2.6057,2.606,2.6113,2.6118,2.6086,2.6178,2.614,2.6148,2.6173,2.6185,2.6194,2.6191,2.6043,0,0,0,0,0,2.598,2.6012,2.6017,2.607,2.6078,2.6074,2.6091,2.6081,2.6095,2.6101,2.6106,2.6121,2.6148,2.6167,2.6193,2.6256,2.6257,2.6285,2.6295,2.6302,2.6309,2.6341,2.6353,2.6225,2.6225,2.6225,0,0,2.6018,2.6026,2.6047,2.608,2.609,2.6123,2.608,2.6116,2.614,2.6107,2.6154,2.6158,2.6173,2.6229,2.6254,2.6235,2.6344,2.6309,2.6315,2.6318,2.6348,2.636,2.637,2.6229,2.6228,2.6227,0,0,2.6102,2.6112,2.6156,2.6167,2.6183,2.618,2.619,2.6201,2.6202,2.6249,2.6225,2.6252,2.6301,2.6312,2.6324,2.6411,2.639,2.6419,2.6468,2.6499,2.6509,2.6518,2.6547,2.6558,2.6426,2.6426,2.6426,0,2.6146,2.6194,2.6182,2.6219,2.6234,2.6206,2.625,2.6261,2.6284,2.6295,2.6273,2.6332,2.634,2.6398,2.6419,2.643,2.6441,2.6417,2.6509,2.6517,2.6525,2.6553,2.6564,2.6429,2.6429,2.6429,2.6428,0,2.6247,2.6281,2.6315,2.6337,2.6356,2.6397,2.6389,2.641,2.6398,2.6396,2.6443,2.6452,2.6478,2.6491,2.6481,2.6547,2.6534,2.6511,2.6472,2.6541,2.6567,2.6577,2.6434,2.6433,2.6432,2.6431,0,0,2.6363,2.6378,2.639,2.6399,2.6414,2.6439,2.6478,2.6504,2.6521,2.6538,2.6569,2.661,2.6588,2.6601,2.6591,2.6619,2.6685,2.6592,2.6592,2.6608,2.6757,2.6773,2.6786,2.6672,2.6674,2.6675,2.6755,0,2.6446,2.6514,2.6503,2.6567,2.6597,2.657,2.6604,2.6616,2.6615,2.664,2.6639,2.6668,2.6638,2.6645,2.6671,2.6671,2.6714,2.6666,2.6699,2.6701,2.6695,2.6799,2.6817,2.6892,2.6765,2.6767,2.6768,0,2.6552,2.6572,2.664,2.6648,2.666,2.6691,2.6712,2.6737,2.6749,2.6747,2.6761,2.6746,2.6783,2.6744,2.6795,2.6762,2.6775,2.6777,2.6779,2.6781,2.6738,2.6803,2.6915,2.6926,2.6784,2.6783,2.6781,0,2.6628,2.6672,2.6718,2.6727,2.6738,2.676,2.6765,2.6776,2.6791,2.681,2.6819,2.6842,2.6855,2.6872,2.6863,2.6836,2.6914,2.6875,2.6912,2.6912,2.6929,2.6928,2.7044,2.694,2.694,2.694,2.694,0,2.6721,2.6763,2.6752,2.678,2.6825,2.6812,2.6857,2.686,2.6869,2.6896,2.6875,2.69,2.6887,2.6911,2.6904,2.6946,2.6952,2.695,2.6948,2.6952,2.6952,2.6959,2.6953,2.6943,2.6942,2.6941,2.6941,0,2.6813,2.6808,2.6855,2.6862,2.6864,2.6898,2.6903,2.6928,2.6926,2.696,2.6967,2.6963,2.6991,2.6983,2.7014,2.7009,2.7061,2.7053,2.7057,2.7054,2.7091,2.7087,2.7215,2.7231,2.7118,2.7119,2.712,0,2.6872,2.6904,2.6913,2.693,2.6937,2.6964,2.698,2.6967,2.6984,2.7,2.7023,2.7049,2.7069,2.7114,2.7113,2.7136,2.7126,2.717,2.713,2.7132,2.7125,2.7123,2.7125,2.7177,2.7179,2.718,2.7181,0,2.6977,2.6972,2.6995,2.7017,2.7036,2.7053,2.7067,2.7082,2.707,2.709,2.7118,2.7133,2.7163,2.7188,2.7209,2.7214,2.7195,2.7193,2.7203,2.7206,2.7207,2.7205,2.7077,2.719,2.7189,2.7189,2.7188,2.7188,2.7053,2.7079,2.709,2.7115,2.7125,2.7139,2.7162,2.7163,2.7186,2.7209,2.72,2.7232,2.7242,2.7267,2.7275,2.7299,2.7282,2.7296,2.7299,2.7303,2.7307,2.7204,2.7302,2.7302,2.7302,2.7302,2.7301,0,2.7155,2.716,2.7184,2.7205,2.7225,2.7206,2.7221,2.7238,2.7266,2.7278,2.7297,2.7328,2.7352,2.7353,2.7375,2.7394,2.7386,2.74,2.7398,2.7399,2.7321,2.731,2.7406,2.7406,2.7406,2.7406,2.7406,2.7406,2.7211,2.7253,2.7249,2.7296,2.73,2.7331,2.7341,2.7353,2.7361,2.7397,2.7417,2.7417,2.7424,2.7446,2.7467,2.7466,2.7475,2.7492,2.7488,2.7415,2.7405,2.7395,2.7384,2.7494,2.7495,2.7564,2.7565,2.7565]}]]